Regional Weather Roundup
Issued by NWS Goodland, KS

Home | Current Version | Previous Version | Graphics & Text | Print | Product List | Glossary On
Versions: 1 2 3 4 5 6 7 8 9 10 11 12 13 14 15 16 17 18 19 20 21 22 23 24 25 26 27 28 29 30 31 32 33 34 35 36 37 38 39 40 41 42 43 44 45 46 47 48 49 50
000
ASUS43 KGLD 252308
RWRGLD

GOODLAND FORECAST AREA HOURLY WEATHER ROUNDUP
NATIONAL WEATHER SERVICE GOODLAND KS
400 PM MST THU DEC 25 2014

...OFFICIAL OBSERVATIONS...

CITY           SKY/WX    TMP DP  RH WIND       PRES   REMARKS
GOODLAND KS    PTCLDY    39  27  62 N15       29.55R
HILL CITY KS   PTCLDY    46  26  45 NW14      29.53R
IMPERIAL NEB   CLOUDY    32  25  75 N23       29.62R WCI  19
MCCOOK NEB     CLEAR     38  23  55 N9        29.58R
AKRON CO       CLOUDY    29  28  96 N21       29.60R WCI  16
BURLINGTON CO  CLEAR     39  26  59 N13       29.53R
LIMON CO       MOCLDY    33  27  78 N15       29.55R
$$

...UNOFFICIAL OBSERVATIONS...

CITY           SKY/WX    TMP DP  RH WIND       PRES   REMARKS
COLBY KS       CLEAR     37  30  75 N9        29.56R
GOVE KS          N/A     43  32  65 MISG        N/A
NORTON KS      CLEAR     37  21  52 NW9       29.54R
SHARON SPRINGS   N/A     44  26  49 N10G18      N/A
TRIBUNE KS     CLOUDY    55  34  44 SW7       29.50R
KIT CARSON CO    N/A     39  26  61 MISG        N/A
YUMA CO          N/A     32  27  82 N18         N/A
$$


USA.gov is the U.S. government's official web portal to all federal, state and local government web resources and services.